Hourly Weather Roundup
Issued by NWS Central Illinois

Home | Current Version | Previous Version | Text Only | Print | Product List | Glossary On
Versions: 1 2 3 4 5 6 7 8 9 10 11 12 13 14 15 16 17 18 19 20 21 22 23 24 25 26 27 28 29 30 31 32 33 34 35 36 37 38 39 40 41 42 43 44 45 46 47 48 49 50
000
NZUS43 KILX 251910
HWRILX

AREA WEATHER ROUNDUP
NATIONAL WEATHER SERVICE, LINCOLN IL
200 PM CDT WED MAY 25 2016


CITY           SKY/WX    TMP DP  RH WIND       PRES   REMARKS
BLOOMINGTON    MOSUNNY   86  67  52 S18       29.96F HX  89
CHAMPAIGN      MOSUNNY   87  63  44 S18G30    29.97F HX  88
DANVILLE       MOSUNNY   85  64  48 SW17G24   29.97F HX  87
DECATUR        LGT RAIN  81  64  56 SW23G35   29.99R HX  82
EFFINGHAM      MOSUNNY   79  65  62 S16G22    30.05R HX  81
FLORA          CLOUDY    80  67  65 S21       30.05R HX  82
GALESBURG      MOSUNNY   79  66  63 S7        29.90F HX  81
JACKSONVILLE   CLOUDY    83  67  56 S15G22    29.95F HX  86
LACON          PTSUNNY   85  64  48 SW15G22   29.90F HX  86
LAWRENCEVILLE  MOSUNNY   78  62  57 S15       30.05F HX  80
LITCHFIELD     LGT RAIN  72  67  83 S15       30.00F
$$


CITY           SKY/WX    TMP DP  RH WIND       PRES   REMARKS
LINCOLN        MOSUNNY   83  67  57 S21G29    29.96R HX  86
MACOMB         CLOUDY    80  65  61 S10       29.95R HX  81
MATTOON        MOSUNNY   78  64  61 SW16G25   30.00F HX  80
MT CARMEL AP   CLOUDY    74  64  73 S12       30.05F
OLNEY-NOBLE AP CLOUDY    73  68  83 S12       30.05S
PARIS          MOSUNNY   83  65  55 S10       30.02F HX  84
PEORIA         MOSUNNY   85  65  51 S14G23    29.91F HX  86
PONTIAC        SUNNY     90  61  37 S17       29.94F HX  90
RANTOUL        NOT AVBL
ROBINSON       MOSUNNY   76  66  70 S12       30.04F
SPRINGFIELD    PTSUNNY   81  66  60 S21       29.97R HX  83
TAYLORVILLE    PTSUNNY   77  65  67 S20G25    30.00F
$$

...REGIONAL REPORTS...


CITY           SKY/WX    TMP DP  RH WIND       PRES   REMARKS
CHICAGO O`HARE PTSUNNY   84  62  47 SE9       29.94F HX  85
KANKAKEE       MOSUNNY  N/A N/A N/A S9        29.96F
MOLINE         CLOUDY    84  66  54 S13G20    29.90F HX  86
MOUNT STERLING MOSUNNY   82  66  59 S8        29.93S HX  84
MOUNT VERNON   CLOUDY    73  64  73 S12       30.08R
PITTSFIELD     MOSUNNY   83  69  62 S13       29.95F HX  86
QUINCY         SUNNY     82  62  50 S7        29.94S HX  83
ROCKFORD       CLOUDY    88  60  38 S17       29.92F HX  87
$$


CITY           SKY/WX    TMP DP  RH WIND       PRES   REMARKS
BURLINGTON     MOSUNNY   81  64  56 S12       29.92F HX  82
CEDAR RAPIDS   CLOUDY    79  66  64 S13       29.86F HX  81
DES MOINES     CLOUDY    75  62  64 S12       29.85F
KIRKSVILLE     CLOUDY    77  64  64 S8        29.94F
OTTUMWA        CLOUDY    78  64  61 S12       29.88S HX  80
ST LOUIS       CLOUDY    79  67  66 S14G20    29.98F HX  81
$$


CITY           SKY/WX    TMP DP  RH WIND       PRES   REMARKS
TERRE HAUTE    MOSUNNY   82  64  54 SW17      30.03F HX  83
EVANSVILLE     LGT RAIN  71  67  87 SW10      30.10F
INDIANAPOLIS   PTSUNNY   82  61  48 SW14G21   30.03F HX  83
LAFAYETTE      MOSUNNY   83  60  45 SW12G22   30.00F HX  83
MADISON        PTSUNNY   83  63  50 S17       29.90F HX  84
MILWAUKEE      PTSUNNY   60  52  74 NE10      29.98F
$$






USA.gov is the U.S. government's official web portal to all federal, state and local government web resources and services.